This demonstration page uses our WeatherBlox Daily Observations layout. Learn more.

Left ArrowRight Arrow

36.19886, -115.1175

Hourly Observations for October 14, 2020

Temp ( °F °C ) Dew Point ( °F °C ) Humidity (%) Winds ( mph kmh ) Pressure ( in mb ) Visibility ( mi km ) Precip ( " mm )
12:53 am 00:53 Clear 72 22.2 33 0.6 24 24 WSW 7 11 30.01 1016 10 16 0.00 0.00
1:53 am 01:53 Clear 70 21.1 29 -1.7 22 22 WNW 5 7 30.01 1016 10 16 0.00 0.00
2:53 am 02:53 Clear 69 20.6 25 -3.9 19 19 WNW 6 9 30.01 1016 10 16 0.00 0.00
3:53 am 03:53 Clear 66 18.9 28 -2.2 24 24 NW 7 11 30.01 1016 10 16 0.00 0.00
4:53 am 04:53 Clear 67 19.4 27 -2.8 22 22 NNW 7 11 30.02 1017 10 16 0.00 0.00
5:53 am 05:53 Clear 67 19.4 27 -2.8 22 22 NW 5 7 30.03 1017 10 16 0.00 0.00
6:53 am 06:53 Sunny 65 18.3 28 -2.2 25 25 WNW 5 7 30.04 1017 10 16 0.00 0.00
7:53 am 07:53 Sunny 72 22.2 25 -3.9 17 17 NNW 10 17 30.06 1018 10 16 0.00 0.00
8:53 am 08:53 Sunny 77 25 24 -4.4 14 14 NNW 13 20 30.07 1018 10 16 0.00 0.00
9:53 am 09:53 Sunny 80 26.7 26 -3.3 14 14 Calm 30.07 1018 10 16 0.00 0.00
10:53 am 10:53 Sunny 84 28.9 28 -2.2 13 13 S 6 9 30.06 1018 10 16 0.00 0.00
11:53 am 11:53 Sunny 87 30.6 28 -2.2 12 12 S 9 15 30.05 1018 10 16 0.00 0.00
12:53 pm 12:53 Sunny 90 32.2 28 -2.2 11 11 E 5 7 30.03 1017 10 16 0.00 0.00
1:53 pm 13:53 Sunny 92 33.3 28 -2.2 10 10 NE 5 7 29.99 1016 10 16 0.00 0.00
2:53 pm 14:53 Sunny 92 33.3 28 -2.2 10 10 ESE 6 9 29.97 1015 10 16 0.00 0.00
3:53 pm 15:53 Sunny 95 35 28 -2.2 9 9 ESE 3 6 29.95 1014 10 16 0.00 0.00
4:53 pm 16:53 Sunny 95 35 28 -2.2 9 9 S 5 7 29.93 1014 10 16 0.00 0.00
5:53 pm 17:53 Sunny 91 32.8 29 -1.7 11 11 NE 6 9 29.93 1014 10 16 0.00 0.00
6:53 pm 18:53 Clear 89 31.7 28 -2.2 11 11 SE 6 9 29.95 1014 10 16 0.00 0.00
7:53 pm 19:53 Clear 83 28.3 31 -0.6 15 15 WNW 6 9 29.96 1015 10 16 0.00 0.00
8:53 pm 20:53 Clear 81 27.2 34 1.1 18 18 WNW 8 13 29.96 1015 10 16 0.00 0.00
9:53 pm 21:53 Clear 78 25.6 32 0 19 19 WNW 7 11 29.98 1015 10 16 0.00 0.00
10:53 pm 22:53 Clear 78 25.6 31 -0.6 18 18 WNW 9 15 29.98 1015 10 16 0.00 0.00
11:53 pm 23:53 Clear 83 28.3 28 -2.2 13 13 WNW 13 20 29.96 1015 10 16 0.00 0.00

Powered by AerisWeather